Main page
METAR-TAF:

METAR-TAF

Airports :

Iranshahr, Iran

latitude: 27-12N, longitude: 060-42E, elevation: 591 m

Current weather observation

The report was made 1 hour and 3 minutes ago, at 07:00 UTC
Calm wind
Temperature 16°C
Humidity 29%
Pressure 1020 hPa
Visibility: 5000 m
haze

METAR: OIZI 200700Z 00000KT 5000 HZ NSC 16/M02 Q1020

Time: 11:33 (08:03 UTC)


TAF: missing

Weather observations and forecasts of more than 4000 airports (METAR and TAF reports).

The available stations are represented by yellow and red dots on the map.

Hover mouse over dot to see the name of the station.

Then click to see weather observations and forecasts.

To change the map : click on the green buttons with a black cross to zoom in, on the green button with a dash to zoom out, or on the green arrows for adjacent maps.


METAR-TAF: